National Oceanic Atmosphere Administration National Weather Service Headquarters National Weather Service Headquarters
NOAA logo WFO Anchorage Scalable transition graphic NWS logo
Transition from title bar to navgation bar   Aviation Weather 15 AKDT 
blankspace Home   |   Mobile   |   Social Media   |   Mesonet   |   Surface Map   |   Radar   |   Submit Storm Reports   |   News =23 GMT 

LocalForecast by City, St or Zip Code

spacer

Forecasts/Products
  Public
  Forecast Discussion
    - With Glossary
  Aviation
  Marine
  Hydrology(RFC)
  Rivers & Lakes AHPS
  Ice Desk
  TV Weather
  Fire Weather
  Avalanche
  Travel 511
  Graphical
  xml logo RSS Feeds
  Marine FTPMail

spacer

Data
  Mesonet
  Model Graphics
  Local Model
  Observations
  Marine Obs
  Satellite/Radar
  Vent Factor
  Soaring Index
  Weather Links

spacer

Climate
  PAFC Climate
  Interactive Climate
  PAFC Records
  Local
  National
  More

spacer

Outreach
  About Us
  Community Outreach
  Kids' Page
  Tour/Speaker Request
  Weather Classroom
  Social Media

spacer

Reports
  COOP Observers
  Local Storm Reports
  Spotter Page
  Submit a Storm Report

spacer

Miscellaneous
  Archived Alaska Weather Stories
  Student Career Opportunities
  Research Papers

spacer

Print Friendly/
Low Bandwidth

  Public Forecasts
  Marine Forecasts

spacer

Contact Us
  mailto pafcweb

spacer

Facebook Follow the National Weather Service in Alaska on Twitter
USA.gov is the U.S. government's official web portal to all federal, state and local government web resources and services.


 ICAO ID:   AAWU Graphics

Internet access to TAFs and METAR observations is for planning purposes only. We can not guarantee the timeliness of internet products. Before flying please get a formal pilot briefing (1-800-992-7433) and ALWAYS file a Flight Plan!Pilot briefings are provided to licensed aircraft pilots, ONLY! Others may not use the above number to obtain weather information.

Check out the Key to TAFs and METARs for help with decoding the information.

A 12 hour summary of TAFs can be found here.

PAEN TAF
PAEN 291741Z 2918/3018  VRB03KT P6SM BKN120
     FM292100 35008KT P6SM SCT045 BKN080
     FM300800 35008G18KT P6SM BKN080
     FM301400 35010G20KT P6SM SCT080 SCT120 BKN200=
85404
FTAK31 PANC 291741
TAFANC
TAF


METAR PAEN 292253Z 32007KT 10SM BKN075 OVC110 12/M01 A2936 RMK AO2
     SLP945 T01221006=
METAR PAEN 292253Z 32007KT 10SM BKN075 OVC110 12/M01 A2936=
METAR PAEN 292153Z 35004KT 10SM OVC100 11/01 A2938 RMK AO2 SLP951
     T01110006=
METAR PAEN 292153Z 35004KT 10SM OVC100 11/01 A2938=
METAR PAEN 292053Z 05005KT 10SM OVC100 11/03 A2939 RMK AO2 SLP954
     T01060033 57013=
METAR PAEN 292053Z 05005KT 10SM OVC100 11/03 A2939=
METAR PAEN 291953Z 06006KT 10SM OVC100 09/03 A2940 RMK AO2 SLP957
     T00940028=
METAR PAEN 291953Z 06006KT 10SM OVC100 09/03 A2940=


National Weather Service
Anchorage Forecast Office
6930 Sand Lake Road
Anchorage, Ak 99502
(907) 266-5105 M-F/7-5pm
About Us
Career Opportunities
Glossary
Disclaimer
Privacy Policy
Credits
Alaska Weather Information Line:
1-800-472-0391